Regional Weather Roundup
Issued by NWS

Home | Current Version | Previous Version | Text Only | Print | Product List | Glossary On
Versions: 1 2 3 4 5 6 7 8 9 10 11 12 13 14 15 16 17 18 19 20 21 22 23 24 25 26 27 28 29 30 31 32 33 34 35 36 37 38 39 40 41 42 43 44 45 46 47 48 49 50
000
ASUS43 KDMX 261404
RWRIA

WEATHER ROUNDUP FOR IOWA
NATIONAL WEATHER SERVICE DES MOINES IA
  ISSUED BY NWS QUAD CITIES IA IL
800 AM CST THU FEB 26 2015

NOTE: "FAIR" INDICATES FEW OR NO CLOUDS BELOW 12,000 FEET WITH NO
SIGNIFICANT WEATHER AND/OR OBSTRUCTIONS TO VISIBILITY.

* - THESE STATIONS ARE NOT NWS STATIONS...THUS NOT UNDER NWS
QUALITY CONTROL.  THEY ALSO DO NOT REPORT WEATHER SUCH
AS PRECIPITATION OR FOG.

IAZ001>003-012>014-020>022-031>034-043>046-261500-
   NORTHWEST IOWA

CITY           SKY/WX    TMP DP  RH WIND       PRES   REMARKS
CARROLL *      CLEAR     -4 -11  71 NW16      30.42R WCI -25
CHEROKEE *     SUNNY     -7 -13  75 N9        30.46R WCI -24
DENNISON *     PTCLDY    -4 -13  65 N13       30.42R WCI -23
LE MARS *      CLEAR     -6 -11  77 N8        30.49R WCI -21
ORANGE CITY *  CLEAR     -6 -13  71 NW5       30.44R WCI -17
SHELDON *      CLEAR     -9 -17  70 NW8       30.43R WCI -26
SIOUX CITY     CLEAR     -2  -9  72 NW16      30.49R WCI -23
SPENCER        CLEAR     -6 -14  68 N13       30.42R WCI -25
STORM LAKE *   CLOUDY    -8 -15  71 NW13G18   30.41R WCI -28
$$

IAZ055>058-069>071-079>083-090>094-261500-
   SOUTHWEST IOWA

CITY           SKY/WX    TMP DP  RH WIND       PRES   REMARKS
ATLANTIC *     SUNNY     -2  -9  71 N15       30.42R WCI -22
AUDUBON *      SUNNY     -4  -9  77 NW12      30.40R WCI -22
CLARINDA *     CLOUDY     1  -6  71 N21       30.45R WCI -20
COUNCIL BLFS * PTCLDY     0  -8  71 N12G23    30.43R WCI -18
CRESTON *      SUNNY      0  -8  71 N16G23    30.37R WCI -21
HARLAN *       CLEAR     -2  -9  71 N16       30.47R WCI -23
LAMONI         SUNNY      2  -6  69 N16       30.34R WCI -18
RED OAK *      SUNNY      1  -6  71 N16       30.45R WCI -18
SHENANDOAH *   PTSUNNY    1  -6  71 N18G24    30.47R WCI -19
$$

IAZ047>049-059>061-072>074-084-261500-
   CENTRAL IOWA

CITY           SKY/WX    TMP DP  RH WIND       PRES   REMARKS
AMES           SUNNY     -3 -11  68 N17       30.39R WCI -24
ANKENY *       MOSUNNY    0  -9  65 N17       30.40R WCI -21
BOONE *        SUNNY     -4 -11  71 N16       30.37R WCI -25
CHARITON *     MOSUNNY    3  -6  66 NW20      30.34R WCI -18
DES MOINES     PTSUNNY    2  -8  63 N14G22    30.39R WCI -16
GRINNELL *     SUNNY     -1  -9  71 NW14      30.33R WCI -20
KNOXVILLE *    MOSUNNY    1  -8  66 N16       30.34R WCI -18
MARSHALLTOWN   MOSUNNY   -2 -10  69 NW15      30.35R WCI -22
NEWTON *       SUNNY      0  -9  65 N17G23    30.35R WCI -21
PELLA *        SUNNY      2  -4  74 N10       30.36R WCI -13
PERRY *          N/A     -2  -8  76 N16       30.41R WCI -23
$$

IAZ004>006-015-016-023>025-035-036-261500-
   NORTH CENTRAL IOWA

CITY           SKY/WX    TMP DP  RH WIND       PRES   REMARKS
ALGONA *       CLEAR     -8 -13  77 N12       30.41R WCI -27
CLARION *      SUNNY     -8 -15  71 N13       30.39R WCI -28
ESTHERVILLE    CLEAR     -9 -14  78 NW14      30.41R WCI -30
FORT DODGE *   SUNNY     -6 -13  71 N8        30.41R WCI -21
MASON CITY     SUNNY     -8 -15  71 NW15      30.37R WCI -30
FOREST CITY *  FAIR      -6 -15  65 NW10      30.38R WCI -23
WEBSTER CITY * SUNNY     -6 -13  71 NW17      30.38R WCI -28
IOWA FALLS *   FAIR      -6 -13  71 NW13      30.36R WCI -25
$$

IAZ007>011-017>019-026>030-037>042-050>054-066-261500-
   NORTHEAST IOWA

CITY           SKY/WX    TMP DP  RH WIND       PRES   REMARKS
CEDAR RAPIDS   MOSUNNY    0  -8  69 NW13      30.28R WCI -18
CHARLES CITY * SUNNY     -8 -17  65 N13       30.34R WCI -28
CLINTON *      PTSUNNY    7   0  72 N15       30.26R WCI -11
DECORAH *      SUNNY     -2 -11  65 N10G16    30.30R WCI -19
DUBUQUE        MOSUNNY    2  -7  66 N14       30.25R WCI -16
MONTICELLO *   MOSUNNY    0  -9  65 N7        30.29R WCI -13
OELWEIN *      SUNNY     -4 -13  65 N15       30.31R WCI -25
WATERLOO       MOSUNNY   -5 -13  68 NW12      30.34R WCI -23
$$

IAZ064-065-067-068-078-261500-
   EAST CENTRAL IOWA

CITY           SKY/WX    TMP DP  RH WIND       PRES   REMARKS
DAVENPORT      CLOUDY     8  -1  66 N16       30.25R WCI -10
IOWA CITY      PTSUNNY    7  -4  60 N15       30.31R WCI -10
MT. PLEASANT * CLOUDY     9   0  68 NW14      30.27R WCI  -8
MUSCATINE *    CLOUDY    10   0  61 N13       30.29R WCI  -5
QUAD CITIES    CLOUDY    11   1  64 N8        30.25R WCI  -1
$$

IAZ062-063-075>077-085>089-095>099-261500-
   SOUTHEAST IOWA

CITY           SKY/WX    TMP DP  RH WIND       PRES   REMARKS
BURLINGTON     LGT SNOW  10   4  76 N15       30.24R WCI  -7
FAIRFIELD *    MOSUNNY    7  -4  61 NW16      30.29R WCI -11
FORT MADISON * CLOUDY     9   3  78 N15       30.25R HAZE    WCI  -8
KEOKUK *       LGT SNOW  10   7  85 N10       30.26R WCI  -3
OSKALOOSA *    FAIR       3  -5  68 N17       30.32R WCI -17
CENTERVILLE *  FAIR       5  -2  72 NW14      30.32R WCI -12
OTTUMWA        MOSUNNY    4  -5  66 N16       30.31R WCI -15
WASHINGTON *   PTSUNNY    9   1  72 NW15      30.29R WCI  -8
$$

ABBREVIATIONS USED IN REMARKS
   TC - TEMPERATURES IN CELSIUS
  WCI - WIND CHILL INDEX
   HX - HEAT INDEX
  VSB - VISIBILITY
$$


USA.gov is the U.S. government's official web portal to all federal, state and local government web resources and services.